SL-14 DEB, 45277

Orbit data source: Space-Track

SL-14 DEB, 45277 is space debris in LEO originally from a launch on Thu, 15 Aug 1991 UTC launched from the Plesetsk Missile And Space Complex (PKMTR). Debris objects in space refer to the collection of defunct objects orbiting the Earth. Examples of debris include non-operational satellites, rocket bodies, and fragments generated from explosions, collisions, or faulty payload assembly.

Loading next visibility...
Identifier
45277, 1991-056P
Orbit
LEO
Country
Flag of CISCIS
Related business
Manufacturer
Unknown
Mission
Spacecraft
Bus & Motor
Unknown
Mass
Unknown
Launch date (UTC)
1991-08-15 (35 years ago)
Launch vehicle
Unknown
Launch site
Plesetsk Missile And Space Complex (PKMTR)
Object type
Payload
Rocket body
Debris
Shape & HBR
Unknown shape, 0.1 m
Radar Cross Section
Medium (>0.1 m² and <1 m²)

Expand to show TLE details & history
Last TLE update: 12 hours ago

TLE from 12 hours ago
0 SL-14 DEB
1 45277U 91056P   26257.40196259  .00003457  00000-0  61107-2 0  9990
2 45277  82.5520  43.2720 0083323 334.4358  25.2667 13.40990067319028
Epoch: 2026-09-14T09:38Z
TLE epoch observation values (Epoch: 2026-09-14T09:38:49.567Z)
Latitude
-0.0001°
Longitude
-94.81732°
Altitude
1,052.129 km
Speed
7.353 km/s
True Right ascension
02h 53m 05s
True Declination
0° 00' 00"
Sunlit
Object was in full shadow at epoch
Visualization orbit readout
Latitude
Unknown
Longitude
Unknown
Altitude
Unknown
Speed
Unknown
Apparent Right ascension
Unknown
Apparent Declination
Unknown
Sunlit
N/A
Visualization observer readout
Local Sidereal Time
14:25:34
Azimuth
Unknown
Elevation
Unknown
Doppler factor
Unknown
Orbital elements
Apogee altitude
1,165.138 km
Perigee altitude
1,040.471 km
Semi-major axis
7,480.941 km
Eccentricity
0.00833
Inclination
82.552°
RAAN
43.272°
Arg. of periapsis
334.4358°
True anomaly
25.67811°
Mean anomaly
25.2667°
Eccentric anomaly
25.47202°
Mean motion
3.35435 °/min
Orbital period
107.32 mins
BSTAR
0.0061107
Loading maneuver chart data...
Computing Atmospheric mass density...
Loading historical data...
Loading historical data...
Loading historical data...
Loading historical data...
Loading historical data...
Loading historical data...
Loading historical data...

Documentation

Showing up to 5 results
|